Hourly Data Report for February 18, 2020

TORONTO CITY
ONTARIO
Current Station Operator: ECCC - MSC

43°40'00.000" N
79°24'00.000" W
112.50 m
6158355
71508
XTO

Download Data

Hourly Data (February 2020)
Hourly Data Report for February 18, 2020
TIME
LST
Temp Definition
°C
Dew Point Definition
°C
Rel Hum Definition
%
Precip. Amount Definition
mm

Wind Dir Definition
10's deg

Wind Spd Definition
km/h
Visibility Definition
km
Stn Press Definition
kPa
Hmdx Definition


Wind Chill Definition


Weather Definition


00:00 -0.1 -4.5 72 0.0       100.83     LegendNANA
01:00 0.1 -4.4 72 0.0       100.74     LegendNANA
02:00 -0.6 -2.4 88 0.0       100.62     LegendNANA
03:00 -0.4 -1.5 93 1.4       100.43     LegendNANA
04:00 -0.1 -0.9 94 2.0       100.26     LegendNANA
05:00 0.2 -0.5 95 1.9       100.07     LegendNANA
06:00 0.5 -0.1 95 1.2       99.93     LegendNANA
07:00 0.9 0.3 95 1.1       99.77     LegendNANA
08:00 1.7 1.0 95 0.7       99.68     LegendNANA
09:00 2.2 1.3 94 0.0       99.55     LegendNANA
10:00 3.5 2.3 91 0.0       99.50     LegendNANA
11:00 3.9 2.9 93 0.0       99.49     LegendNANA
12:00 4.4 3.3 92 0.2       99.51     LegendNANA
13:00 5.9 1.7 75 0.0       99.53     LegendNANA
14:00 5.6 0.5 70 0.0       99.61     LegendNANA
15:00 4.9 -1.3 64 0.0       99.75     LegendNANA
16:00 4.3 -2.3 62 0.0       99.87     LegendNANA
17:00 4.1 -2.6 61 0.0       99.97     LegendNANA
18:00 3.8 -3.0 61 0.0       100.08     LegendNANA
19:00 3.4 -3.9 59 0.0       100.18     LegendNANA
20:00 3.0 -4.5 58 0.0       100.29     LegendNANA
21:00 2.6 -4.4 60 0.0       100.36     LegendNANA
22:00 1.4 -6.3 56 0.0       100.49     LegendNANA
23:00 0.7 -6.6 58 0.0       100.55     LegendNANA

Notes on Data Quality.

Legend

  • E = Estimated
  • M = Missing
  • NA = Not Available*
  • [empty] = Indicates an unobserved value
Date modified: